[[{"header":{"parameterUnit":"m.s-1","parameterCategory":2,"la1":30.2991,"la2":30.254,"lo1":-89.0895,"lo2":-89.0444,"dy":0.0017,"dx":0.0017,"nx":28,"ny":28,"refTime":"2024-05-10T21:00:00:Z","depth":"0","parameterNumber":2,"parameterNumberName":"U-component_of_CURRENTS"},"data":[0,0,0,0,0,0,0,0,0,0,0,0,0,0,0,0,0,0,0,0,0,0,0,0,0,0,0,0,0,0,0,0,0,0,0,0,0,0,0,0,0,0,0,0,0,0,0,0,0,0,0,0,0,0,0,0,0,0,-0.4034,-0.4035,0,-0.4165,-0.4166,-0.4168,-0.4182,-0.418,-0.4179,-0.4178,-0.4076,-0.4074,-0.4073,0,0,0,0,0,0,0,0,0,0,0,0,0,-0.3706,-0.3712,-0.4034,-0.4035,-0.4037,-0.4164,-0.4166,-0.4168,-0.4182,-0.418,-0.4179,-0.4177,-0.4076,-0.4074,-0.4073,0,0,0,0,0,0,0,0,0,0,0,0,0,-0.3845,-0.3714,-0.4033,-0.4058,-0.4061,-0.4164,-0.4166,-0.4169,-0.4183,-0.418,-0.4178,-0.4176,-0.4076,-0.4075,-0.4073,-0.4104,0,0,-0.4066,-0.4066,0,0,0,0,0,0,0,0,-0.3837,-0.3858,-0.4053,-0.4056,-0.406,-0.4153,-0.4013,-0.4135,-0.4183,-0.4138,-0.4178,-0.4175,-0.408,-0.4078,-0.4113,-0.41,-0.4095,-0.4066,-0.4065,-0.4064,-0.4064,0,0,0,0,0,0,0,-0.3828,-0.3851,-0.4087,-0.4054,-0.4059,-0.4031,-0.405,-0.4037,-0.4117,-0.4142,-0.4143,-0.4156,-0.4081,-0.4115,-0.411,-0.4094,-0.4066,-0.4064,-0.4063,-0.4062,-0.4076,-0.4077,0,0,0,0,0,0,-0.3817,-0.3844,-0.4083,-0.4091,-0.3939,-0.4039,-0.406,-0.4127,-0.4122,-0.4121,-0.4157,-0.4156,-0.412,-0.4113,-0.4106,-0.4093,-0.4064,-0.4062,-0.4061,-0.4074,-0.4076,-0.4078,0,0,0,0,0,0,-0.3811,-0.384,-0.4078,-0.3964,-0.3992,-0.4048,-0.4123,-0.4131,-0.4154,-0.4136,-0.413,-0.417,-0.4118,-0.4109,-0.4099,-0.409,-0.4061,-0.406,-0.4073,-0.4075,-0.4077,-0.4098,0,0,0,0,0,0,-0.3802,-0.3838,-0.3874,-0.3966,-0.3999,-0.4121,-0.4125,-0.4135,-0.4165,-0.4164,-0.4145,-0.4135,-0.4116,-0.4103,-0.4097,-0.4087,-0.4058,-0.4071,-0.4074,-0.4076,-0.4095,-0.4101,-0.4105,0,0,0,0,0,-0.3791,-0.3842,-0.3877,-0.3904,-0.4053,-0.4121,-0.4135,-0.4165,-0.4168,-0.4178,-0.4178,-0.4135,-0.4117,-0.4103,-0.4096,-0.4085,-0.4069,-0.4073,-0.4076,-0.4093,-0.41,-0.4105,0,0,0,0,0,0,-0.3692,-0.3852,-0.3891,-0.3983,-0.404,-0.4122,-0.4136,-0.4167,-0.4185,-0.4173,-0.4157,-0.4148,-0.4139,-0.4121,-0.4106,-0.4103,-0.4085,-0.4087,-0.41,-0.4106,-0.4111,-0.4063,-0.4056,0,0,0,0,0,-0.3699,-0.3791,-0.3905,-0.3965,-0.4003,-0.4073,-0.4103,-0.4129,-0.4162,-0.417,-0.4168,-0.4161,-0.4157,-0.4136,-0.4135,-0.4128,-0.406,-0.4119,-0.4124,-0.4128,-0.4089,-0.3998,-0.3989,-0.4089,-0.4089,-0.4089,0,0,-0.3657,-0.3768,-0.3805,-0.395,-0.4001,-0.4054,-0.4085,-0.4129,-0.4156,-0.4151,-0.4173,-0.4179,-0.4165,-0.4166,-0.4158,-0.4139,-0.4073,-0.4133,-0.4136,-0.4093,-0.4,-0.3989,-0.398,-0.4092,-0.4091,-0.4091,0,0,-0.361,-0.374,-0.3786,-0.3866,-0.3963,-0.4022,-0.4034,-0.4125,-0.4146,-0.4184,-0.4186,-0.4177,-0.4194,-0.417,-0.4161,-0.4189,-0.4112,-0.4208,-0.4174,-0.4087,-0.4076,-0.4066,-0.3987,-0.3969,-0.4198,-0.4198,-0.4198,0,-0.3536,-0.3642,-0.379,-0.3864,-0.3891,-0.4007,-0.4012,-0.4093,-0.4159,-0.4143,-0.4181,-0.4181,-0.4183,-0.4139,-0.4174,-0.4189,-0.4138,-0.4148,-0.4087,-0.4075,-0.4063,-0.3985,-0.3965,-0.4199,-0.4199,-0.4199,-0.4199,0,-0.3527,-0.3611,-0.3641,-0.3786,-0.3844,-0.3869,-0.3995,-0.4044,-0.409,-0.4129,-0.4117,-0.4148,-0.4111,-0.4152,-0.4179,-0.4112,-0.4103,-0.411,-0.4057,-0.4053,-0.3973,-0.3952,-0.4201,-0.4201,-0.42,-0.42,0,0,-0.3338,-0.3572,-0.3576,-0.3622,-0.3791,-0.383,-0.3899,-0.3941,-0.3945,-0.403,-0.3981,-0.404,-0.4036,-0.4028,-0.4057,-0.4026,-0.3943,-0.4046,-0.4041,-0.3942,-0.3752,-0.37,-0.3671,-0.3942,-0.3938,-0.3935,-0.3734,0,-0.3243,-0.3328,-0.3468,-0.351,-0.3557,-0.3695,-0.3737,-0.3811,-0.3876,-0.389,-0.392,-0.391,-0.3998,-0.3976,-0.3956,-0.3961,-0.3884,-0.3996,-0.3791,-0.3784,-0.3716,-0.3643,-0.3545,-0.3353,-0.3712,-0.3709,-0.3706,0,-0.317,-0.3245,-0.3254,-0.3379,-0.3398,-0.344,-0.3491,-0.3554,-0.3636,-0.3667,-0.3673,-0.3723,-0.3708,-0.3783,-0.3712,-0.3785,-0.3742,-0.375,-0.3741,-0.3654,-0.369,-0.3413,-0.3299,-0.3286,-0.3672,-0.3674,-0.3677,0,-0.2968,-0.3089,-0.307,-0.3126,-0.329,-0.3281,-0.3344,-0.3446,-0.349,-0.3519,-0.3534,-0.3517,-0.352,-0.348,-0.355,-0.3601,-0.3471,-0.3516,-0.3404,-0.3401,-0.325,-0.324,-0.3063,-0.3372,-0.3372,-0.3373,-0.3373,0,-0.2841,-0.2841,-0.298,-0.2999,-0.2973,-0.3125,-0.311,-0.3188,-0.3268,-0.3297,-0.339,-0.3402,-0.3452,-0.3438,-0.3452,-0.337,-0.3358,-0.3347,-0.3322,-0.3263,-0.3256,-0.3187,-0.3244,-0.3365,-0.3367,-0.3368,-0.337,0,-0.2672,-0.2756,-0.2778,-0.2881,-0.2908,-0.2901,-0.3031,-0.3047,-0.313,-0.3171,-0.3174,-0.3284,-0.3263,-0.3301,-0.3242,-0.3232,-0.3108,-0.3117,-0.3061,-0.3032,-0.2912,-0.2976,-0.2754,-0.2671,-0.2914,-0.2911,-0.2908,0,-0.2603,-0.259,-0.2681,-0.2698,-0.2749,-0.2784,-0.2823,-0.2951,-0.3003,-0.3115,-0.312,-0.313,-0.3136,-0.3049,-0.3013,-0.2916,-0.2963,-0.2762,-0.2822,-0.2837,-0.2889,-0.295,-0.2901,-0.264,-0.2635,-0.2632,-0.2629,0,-0.2462,-0.2484,-0.2507,-0.2545,-0.2582,-0.2629,-0.2701,-0.2727,-0.2874,-0.2916,-0.2957,-0.2957,-0.2923,-0.2823,-0.2731,-0.2677,-0.2711,-0.2683,-0.2684,-0.2623,-0.2684,-0.2616,-0.2872,-0.2597,-0.26,-0.2602,-0.2604,-0.2605,-0.2343,-0.2323,-0.2353,-0.2372,-0.2418,-0.2437,-0.2424,-0.2536,-0.2572,-0.263,-0.274,-0.2735,-0.2713,-0.2581,-0.2509,-0.2373,-0.2452,-0.2323,-0.2385,-0.2435,-0.2382,-0.2576,-0.23,-0.2302,-0.2303,-0.2304,-0.2305,0,-0.22,-0.2184,-0.2192,-0.2208,-0.2184,-0.2264,-0.2314,-0.2293,-0.2291,-0.2423,-0.2449,-0.249,-0.2374,-0.2359,-0.2248,-0.2134,-0.2087,-0.2082,-0.2139,-0.209,-0.2212,-0.223,-0.1943,-0.1943,-0.1943,-0.1943,-0.1943,-0.1943,-0.2128,-0.2055,-0.2055,-0.1955,-0.1964,-0.1879,-0.1863,-0.1879,-0.1948,-0.1996,-0.21,-0.2201,-0.2212,-0.2376,-0.2208,-0.208,-0.2031,-0.1962,-0.1981,-0.2107,-0.2136,-0.2163,-0.2189,-0.1897,-0.1898,-0.1777,-0.1776,-0.1776]},{"header":{"parameterUnit":"m.s-1","parameterCategory":2,"la1":30.2991,"la2":30.254,"lo1":-89.0895,"lo2":-89.0444,"dy":0.0017,"dx":0.0017,"nx":28,"ny":28,"refTime":"2024-05-10T21:00:00:Z","depth":"0","parameterNumber":3,"parameterNumberName":"V-component_of_CURRENTS"},"data":[0,0,0,0,0,0,0,0,0,0,0,0,0,0,0,0,0,0,0,0,0,0,0,0,0,0,0,0,0,0,0,0,0,0,0,0,0,0,0,0,0,0,0,0,0,0,0,0,0,0,0,0,0,0,0,0,0,0,-0.0471,-0.0471,0,-0.0441,-0.0441,-0.0441,-0.0408,-0.0407,-0.0406,-0.0405,-0.0256,-0.0253,-0.025,0,0,0,0,0,0,0,0,0,0,0,0,0,-0.0447,-0.0449,-0.0472,-0.0471,-0.047,-0.0441,-0.0441,-0.0441,-0.0408,-0.0407,-0.0406,-0.0405,-0.0257,-0.0254,-0.025,0,0,0,0,0,0,0,0,0,0,0,0,0,-0.0446,-0.0449,-0.0472,-0.0446,-0.0444,-0.0441,-0.0441,-0.0441,-0.0408,-0.0407,-0.0405,-0.0404,-0.0259,-0.0254,-0.0249,-0.0248,0,0,-0.0235,-0.0233,0,0,0,0,0,0,0,0,-0.0446,-0.0448,-0.0451,-0.0448,-0.0445,-0.0422,-0.0377,-0.0369,-0.0408,-0.0426,-0.0405,-0.0403,-0.0299,-0.0291,-0.0296,-0.0241,-0.0234,-0.0235,-0.0232,-0.023,-0.0229,0,0,0,0,0,0,0,-0.0446,-0.0448,-0.0464,-0.045,-0.0446,-0.0418,-0.0417,-0.0376,-0.0372,-0.0425,-0.0421,-0.0411,-0.0297,-0.0301,-0.0292,-0.0232,-0.0235,-0.0231,-0.0228,-0.0226,-0.0169,-0.0171,0,0,0,0,0,0,-0.0446,-0.0449,-0.0465,-0.0463,-0.0437,-0.0419,-0.0419,-0.0435,-0.0375,-0.0364,-0.0412,-0.0409,-0.031,-0.0298,-0.0287,-0.0253,-0.023,-0.0226,-0.0223,-0.0168,-0.017,-0.0171,0,0,0,0,0,0,-0.0446,-0.0449,-0.0466,-0.0449,-0.0449,-0.0421,-0.0439,-0.0435,-0.0429,-0.0366,-0.0353,-0.0409,-0.0308,-0.0293,-0.0266,-0.0248,-0.0223,-0.0219,-0.0167,-0.0169,-0.017,-0.0203,0,0,0,0,0,0,-0.0446,-0.045,-0.0466,-0.0451,-0.045,-0.0463,-0.044,-0.0435,-0.0423,-0.0419,-0.0359,-0.0345,-0.0306,-0.0274,-0.0262,-0.0241,-0.0216,-0.0165,-0.0168,-0.017,-0.02,-0.0206,-0.021,0,0,0,0,0,-0.0446,-0.0481,-0.0468,-0.0469,-0.0473,-0.0463,-0.0461,-0.0438,-0.0424,-0.0428,-0.0401,-0.0346,-0.028,-0.0272,-0.0257,-0.0234,-0.0164,-0.0167,-0.017,-0.0198,-0.0205,-0.021,0,0,0,0,0,0,-0.0481,-0.048,-0.0466,-0.0499,-0.0476,-0.0455,-0.0462,-0.044,-0.0426,-0.0423,-0.0363,-0.0348,-0.0317,-0.0286,-0.0278,-0.0232,-0.0212,-0.0212,-0.0239,-0.0244,-0.025,-0.0233,-0.0212,0,0,0,0,0,-0.0495,-0.0522,-0.0498,-0.0522,-0.0515,-0.0487,-0.0481,-0.0463,-0.0443,-0.0435,-0.0393,-0.0356,-0.0322,-0.0292,-0.0264,-0.0235,-0.0163,-0.0215,-0.022,-0.0224,-0.0205,-0.0086,-0.0076,-0.0181,-0.0181,-0.0181,0,0,-0.0512,-0.0516,-0.0529,-0.053,-0.0516,-0.0524,-0.0482,-0.0478,-0.0474,-0.0419,-0.0408,-0.0371,-0.0324,-0.0299,-0.028,-0.0263,-0.0165,-0.0228,-0.0231,-0.0209,-0.0087,-0.0076,-0.0067,-0.0183,-0.0182,-0.0182,0,0,-0.0559,-0.0564,-0.0597,-0.0588,-0.0569,-0.0553,-0.055,-0.0525,-0.0501,-0.049,-0.0449,-0.0398,-0.0364,-0.0308,-0.028,-0.0296,-0.0203,-0.0299,-0.0292,-0.0177,-0.0166,-0.0155,-0.0074,-0.0056,-0.0292,-0.0292,-0.0292,0,-0.0579,-0.0615,-0.0599,-0.0623,-0.0616,-0.0569,-0.0585,-0.0564,-0.0531,-0.0495,-0.0493,-0.0404,-0.036,-0.029,-0.0304,-0.0297,-0.0236,-0.0267,-0.0178,-0.0166,-0.0154,-0.0073,-0.0052,-0.0294,-0.0294,-0.0293,-0.0293,0,-0.0642,-0.0665,-0.0682,-0.0699,-0.0692,-0.0698,-0.0659,-0.0636,-0.0601,-0.0561,-0.0487,-0.0429,-0.0361,-0.0346,-0.033,-0.0231,-0.0218,-0.02,-0.015,-0.0144,-0.0061,-0.0039,-0.0297,-0.0296,-0.0295,-0.0295,0,0,-0.0701,-0.0722,-0.0728,-0.0737,-0.0729,-0.073,-0.0711,-0.0661,-0.0628,-0.0572,-0.0508,-0.044,-0.0379,-0.0344,-0.0294,-0.0195,-0.0072,-0.017,-0.0163,-0.007,0.0164,0.0201,0.023,-0.0034,-0.003,-0.0027,0.0181,0,-0.0747,-0.0804,-0.0795,-0.0832,-0.0852,-0.0798,-0.0787,-0.0734,-0.0668,-0.0599,-0.0483,-0.0425,-0.0387,-0.035,-0.0241,-0.0121,-0.0011,-0.0131,0.0126,0.0134,0.0186,0.0259,0.0323,0.0517,0.0203,0.0207,0.021,0,-0.081,-0.0838,-0.0884,-0.0887,-0.0888,-0.0899,-0.0839,-0.0818,-0.0699,-0.0643,-0.0528,-0.0449,-0.0302,-0.0279,-0.0016,-0.0097,0.0034,0.0136,0.0147,0.0219,0.0216,0.0463,0.0571,0.078,0.0245,0.0243,0.024,0,-0.0863,-0.0896,-0.0931,-0.0938,-0.0939,-0.0927,-0.091,-0.0824,-0.0789,-0.0654,-0.0606,-0.0426,-0.034,-0.0135,0.0061,0.0034,0.0351,0.0345,0.0512,0.0514,0.0642,0.0649,0.101,0.0561,0.0561,0.056,0.0559,0,-0.0924,-0.0951,-0.0959,-0.0985,-0.1014,-0.0983,-0.0974,-0.092,-0.0829,-0.0783,-0.063,-0.0543,-0.0298,-0.0102,0.0085,0.0373,0.0385,0.0549,0.0594,0.0624,0.0627,0.087,0.0936,0.0568,0.0566,0.0565,0.0563,0,-0.0985,-0.099,-0.1036,-0.1043,-0.1048,-0.1068,-0.1049,-0.1033,-0.0934,-0.0859,-0.0821,-0.0612,-0.0348,-0.0094,0.0236,0.0397,0.0817,0.0761,0.0759,0.0801,0.1135,0.1192,0.1584,0.173,0.0997,0.0999,0.1001,0,-0.1023,-0.1054,-0.1095,-0.1131,-0.1138,-0.1157,-0.1173,-0.11,-0.1072,-0.0895,-0.0861,-0.0602,-0.0404,0.009,0.0436,0.0809,0.0961,0.1066,0.1042,0.1208,0.1306,0.1336,0.1432,0.1189,0.1192,0.1195,0.1197,0,-0.1087,-0.1099,-0.1137,-0.1217,-0.1253,-0.1288,-0.1288,-0.1285,-0.1178,-0.1081,-0.0902,-0.0722,-0.0236,0.0226,0.0695,0.0914,0.1242,0.1134,0.1348,0.1538,0.1561,0.1702,0.0959,0.1223,0.122,0.1218,0.1217,0.1216,-0.1126,-0.1173,-0.1226,-0.1295,-0.1346,-0.1392,-0.1405,-0.1377,-0.1316,-0.1127,-0.0947,-0.0608,0.0052,0.074,0.1005,0.1551,0.1479,0.1702,0.1771,0.1795,0.192,0.1208,0.1485,0.1484,0.1483,0.1482,0.1482,0,-0.1174,-0.1221,-0.13,-0.1378,-0.1442,-0.1446,-0.1462,-0.1427,-0.135,-0.1105,-0.0881,-0.0138,0.0515,0.1122,0.1877,0.2171,0.2247,0.2304,0.2394,0.2473,0.1907,0.1897,0.2227,0.2227,0.2226,0.2226,0.2226,0.2226,-0.1203,-0.1278,-0.132,-0.1431,-0.1483,-0.1519,-0.1518,-0.1445,-0.1266,-0.0836,-0.0401,-0.0026,0.0805,0.1995,0.2684,0.2744,0.3009,0.2977,0.3112,0.2727,0.2676,0.2627,0.264,0.312,0.3121,0.3679,0.3684,0.3688]}],[{"header":{"parameterUnit":"m.s-1","parameterCategory":2,"la1":30.2991,"la2":30.254,"lo1":-89.0895,"lo2":-89.0444,"dy":0.0017,"dx":0.0017,"nx":28,"ny":28,"refTime":"2024-05-10T21:00:00:Z","depth":"2","parameterNumber":2,"parameterNumberName":"U-component_of_CURRENTS"},"data":[0,0,0,0,0,0,0,0,0,0,0,0,0,0,0,0,0,0,0,0,0,0,0,0,0,0,0,0,0,0,0,0,0,0,0,0,0,0,0,0,0,0,0,0,0,0,0,0,0,0,0,0,0,0,0,0,0,0,-0.2705,-0.2706,0,-0.2729,-0.2728,-0.2728,-0.2695,-0.2695,-0.2694,-0.2694,-0.2653,-0.2652,-0.2651,0,0,0,0,0,0,0,0,0,0,0,0,0,-0.2625,-0.2625,-0.2705,-0.2706,-0.2707,-0.2729,-0.2728,-0.2727,-0.2695,-0.2694,-0.2694,-0.2694,-0.2653,-0.2652,-0.2651,0,0,0,0,0,0,0,0,0,0,0,0,0,-0.2644,-0.2625,-0.2704,-0.2702,-0.2703,-0.2729,-0.2728,-0.2727,-0.2695,-0.2694,-0.2694,-0.2694,-0.2653,-0.2652,-0.2651,-0.2645,0,0,-0.2646,-0.2645,0,0,0,0,0,0,0,0,-0.2643,-0.2645,-0.2701,-0.2703,-0.2704,-0.2719,-0.2686,-0.27,-0.2695,-0.2686,-0.2694,-0.2694,-0.2677,-0.2673,-0.2662,-0.2643,-0.2641,-0.2646,-0.2645,-0.2644,-0.2644,0,0,0,0,0,0,0,-0.2642,-0.2644,-0.2702,-0.2703,-0.2705,-0.2699,-0.27,-0.2687,-0.2671,-0.2686,-0.2687,-0.2708,-0.2675,-0.2664,-0.2661,-0.264,-0.2646,-0.2645,-0.2644,-0.2643,-0.2688,-0.269,0,0,0,0,0,0,-0.2663,-0.2643,-0.2702,-0.2704,-0.2686,-0.2702,-0.2702,-0.2705,-0.2673,-0.2672,-0.2708,-0.2707,-0.2666,-0.2663,-0.266,-0.2712,-0.2644,-0.2643,-0.2642,-0.2685,-0.2688,-0.269,0,0,0,0,0,0,-0.266,-0.2667,-0.2701,-0.2685,-0.269,-0.2704,-0.2706,-0.2705,-0.2716,-0.2693,-0.2688,-0.2724,-0.2666,-0.2662,-0.2666,-0.2707,-0.2642,-0.2641,-0.2683,-0.2686,-0.2689,-0.2777,0,0,0,0,0,0,-0.2658,-0.2665,-0.2673,-0.2686,-0.2692,-0.273,-0.2708,-0.2706,-0.2734,-0.2732,-0.2705,-0.2699,-0.2666,-0.2668,-0.2664,-0.2704,-0.264,-0.268,-0.2684,-0.2688,-0.2771,-0.2782,-0.2792,0,0,0,0,0,-0.2654,-0.2669,-0.2672,-0.268,-0.2702,-0.2732,-0.2733,-0.2735,-0.2736,-0.2742,-0.2727,-0.2701,-0.2691,-0.2668,-0.2663,-0.2704,-0.2678,-0.2683,-0.2688,-0.2766,-0.278,-0.2792,0,0,0,0,0,0,-0.2638,-0.2668,-0.2672,-0.2694,-0.2721,-0.2731,-0.2741,-0.2754,-0.2747,-0.2742,-0.2715,-0.2709,-0.2735,-0.2708,-0.2684,-0.2731,-0.2686,-0.269,-0.2748,-0.276,-0.277,-0.2758,-0.2638,0,0,0,0,0,-0.2642,-0.2653,-0.2688,-0.2705,-0.2719,-0.2735,-0.2751,-0.2757,-0.2761,-0.2758,-0.2749,-0.2741,-0.2747,-0.2744,-0.2738,-0.2753,-0.2712,-0.2782,-0.2792,-0.2801,-0.279,-0.277,-0.2777,-0.2706,-0.2706,-0.2706,0,0,-0.2643,-0.2661,-0.2669,-0.2703,-0.2713,-0.2748,-0.274,-0.2769,-0.2802,-0.2755,-0.2784,-0.2777,-0.2762,-0.2783,-0.2793,-0.2766,-0.2803,-0.2807,-0.2815,-0.2798,-0.2776,-0.2782,-0.2788,-0.2709,-0.2708,-0.2708,0,0,-0.2656,-0.2664,-0.2683,-0.2709,-0.2749,-0.2762,-0.2783,-0.2811,-0.2823,-0.2856,-0.284,-0.2856,-0.286,-0.2856,-0.2856,-0.2922,-0.2864,-0.2933,-0.2967,-0.2949,-0.2954,-0.2958,-0.292,-0.292,-0.2932,-0.2933,-0.2933,0,-0.2655,-0.2678,-0.2695,-0.2728,-0.2753,-0.2778,-0.2811,-0.2838,-0.2868,-0.2877,-0.2878,-0.2901,-0.2897,-0.2922,-0.2949,-0.2946,-0.2911,-0.2919,-0.2961,-0.2963,-0.2966,-0.2926,-0.2924,-0.2937,-0.2937,-0.2936,-0.2936,0,-0.2686,-0.2711,-0.2724,-0.2768,-0.2801,-0.2826,-0.2879,-0.2909,-0.2935,-0.2955,-0.2994,-0.299,-0.2993,-0.3019,-0.3003,-0.3031,-0.2993,-0.298,-0.2923,-0.2978,-0.2933,-0.293,-0.2944,-0.2943,-0.2941,-0.294,0,0,-0.2638,-0.2728,-0.2726,-0.2747,-0.2817,-0.2836,-0.2907,-0.2954,-0.2981,-0.3026,-0.3051,-0.3095,-0.3082,-0.3082,-0.3075,-0.3072,-0.3075,-0.3034,-0.3031,-0.2985,-0.3013,-0.2927,-0.2914,-0.3061,-0.3061,-0.3061,-0.2976,0,-0.2641,-0.2697,-0.2751,-0.2798,-0.2822,-0.2878,-0.2934,-0.2986,-0.3026,-0.3057,-0.3082,-0.3098,-0.3112,-0.3105,-0.3114,-0.3082,-0.3069,-0.3097,-0.2975,-0.2971,-0.2879,-0.2909,-0.2712,-0.2614,-0.2972,-0.2972,-0.2971,0,-0.2627,-0.2667,-0.2716,-0.2788,-0.2804,-0.2844,-0.2902,-0.2959,-0.3027,-0.3055,-0.3089,-0.3102,-0.3122,-0.3116,-0.3093,-0.3105,-0.3063,-0.3039,-0.3035,-0.2915,-0.2878,-0.2617,-0.2593,-0.2965,-0.2965,-0.2966,-0.2966,0,-0.2534,-0.2624,-0.2652,-0.2679,-0.2782,-0.2808,-0.2858,-0.2939,-0.2979,-0.3035,-0.3054,-0.3088,-0.3085,-0.3067,-0.3046,-0.3057,-0.2996,-0.2999,-0.2881,-0.2873,-0.266,-0.2633,-0.2962,-0.2962,-0.2962,-0.2962,-0.2963,0,-0.2483,-0.2498,-0.2605,-0.2616,-0.2645,-0.2739,-0.2774,-0.2837,-0.2916,-0.2946,-0.3026,-0.3042,-0.307,-0.3056,-0.3032,-0.2942,-0.298,-0.2877,-0.2846,-0.2687,-0.2665,-0.2932,-0.293,-0.2959,-0.296,-0.2961,-0.2961,0,-0.2365,-0.244,-0.2472,-0.2572,-0.26,-0.2612,-0.2719,-0.275,-0.2837,-0.2877,-0.2891,-0.2985,-0.2964,-0.2976,-0.2932,-0.2897,-0.2834,-0.2786,-0.2593,-0.2541,-0.2725,-0.2728,-0.264,-0.2637,-0.2634,-0.2631,-0.2629,0,-0.231,-0.2314,-0.2408,-0.2428,-0.2469,-0.2517,-0.2557,-0.2678,-0.2722,-0.2833,-0.2839,-0.2862,-0.2845,-0.2771,-0.2706,-0.2619,-0.2723,-0.2396,-0.2392,-0.2713,-0.2692,-0.2701,-0.2708,-0.2142,-0.2136,-0.2131,-0.2127,0,-0.2194,-0.2228,-0.2258,-0.2303,-0.234,-0.2383,-0.2451,-0.2476,-0.261,-0.2647,-0.2681,-0.2673,-0.2631,-0.2468,-0.2382,-0.2316,-0.2403,-0.2293,-0.2654,-0.2268,-0.224,-0.2221,-0.2245,-0.2083,-0.2088,-0.2091,-0.2093,-0.2095,-0.2093,-0.2089,-0.2134,-0.2156,-0.2202,-0.2215,-0.2198,-0.2288,-0.2314,-0.2341,-0.2449,-0.2376,-0.2368,-0.2131,-0.2022,-0.1943,-0.2106,-0.2027,-0.2043,-0.2065,-0.2036,-0.2005,-0.1798,-0.1801,-0.1803,-0.1805,-0.1807,0,-0.1961,-0.1974,-0.1992,-0.2015,-0.1995,-0.2066,-0.21,-0.2057,-0.203,-0.209,-0.2088,-0.1883,-0.178,-0.1777,-0.158,-0.1541,-0.1534,-0.1487,-0.1486,-0.153,-0.1569,-0.1517,-0.114,-0.1138,-0.1136,-0.1134,0,0,-0.1894,-0.1858,-0.1867,-0.1786,-0.18,-0.1716,-0.1691,-0.1654,-0.1656,-0.1581,-0.1556,-0.17,-0.1728,-0.1444,-0.137,-0.1223,-0.1363,-0.1161,-0.1695,-0.1737,-0.1774,-0.1877,-0.1846,0,0,0,0,0]},{"header":{"parameterUnit":"m.s-1","parameterCategory":2,"la1":30.2991,"la2":30.254,"lo1":-89.0895,"lo2":-89.0444,"dy":0.0017,"dx":0.0017,"nx":28,"ny":28,"refTime":"2024-05-10T21:00:00:Z","depth":"2","parameterNumber":3,"parameterNumberName":"V-component_of_CURRENTS"},"data":[0,0,0,0,0,0,0,0,0,0,0,0,0,0,0,0,0,0,0,0,0,0,0,0,0,0,0,0,0,0,0,0,0,0,0,0,0,0,0,0,0,0,0,0,0,0,0,0,0,0,0,0,0,0,0,0,0,0,-0.019,-0.0189,0,-0.0074,-0.0073,-0.0071,0.0001,0.0001,0.0002,0.0002,0.0175,0.0179,0.0184,0,0,0,0,0,0,0,0,0,0,0,0,0,-0.0233,-0.0233,-0.019,-0.0189,-0.0188,-0.0074,-0.0073,-0.0071,0.0001,0.0001,0.0002,0.0002,0.0173,0.0179,0.0184,0,0,0,0,0,0,0,0,0,0,0,0,0,-0.0173,-0.0233,-0.019,-0.0141,-0.0135,-0.0075,-0.0072,-0.007,0.0001,0.0001,0.0002,0.0002,0.0172,0.0178,0.0185,0.0223,0,0,0.0206,0.0209,0,0,0,0,0,0,0,0,-0.0176,-0.0171,-0.0149,-0.0144,-0.0138,-0.0053,-0.0024,0.003,0.0001,-0.0047,0.0002,0.0002,0.0102,0.0114,0.0139,0.0232,0.0239,0.0206,0.021,0.0213,0.0215,0,0,0,0,0,0,0,-0.0181,-0.0175,-0.0141,-0.0148,-0.0141,-0.0084,-0.0076,-0.0013,0.0028,-0.0043,-0.0038,-0.003,0.0106,0.0133,0.0144,0.0242,0.0206,0.0212,0.0216,0.0219,0.0375,0.0375,0,0,0,0,0,0,-0.0208,-0.0179,-0.0145,-0.0138,-0.016,-0.0084,-0.0075,-0.0078,0.0027,0.0041,-0.0031,-0.0027,0.0121,0.0136,0.015,0.0188,0.0213,0.022,0.0223,0.0375,0.0375,0.0375,0,0,0,0,0,0,-0.0209,-0.0206,-0.0149,-0.0157,-0.0147,-0.0085,-0.0088,-0.0076,-0.0055,0.0035,0.0051,-0.0023,0.0122,0.0141,0.0204,0.0196,0.0223,0.0229,0.0375,0.0375,0.0375,0.0272,0,0,0,0,0,0,-0.0211,-0.0208,-0.022,-0.016,-0.0148,-0.0126,-0.0088,-0.0074,-0.0051,-0.0046,0.0047,0.0064,0.0123,0.0193,0.0211,0.0206,0.0234,0.0375,0.0375,0.0375,0.0276,0.0269,0.0263,0,0,0,0,0,-0.0213,-0.0233,-0.0221,-0.0217,-0.0167,-0.0126,-0.0115,-0.0067,-0.0052,-0.0046,0.002,0.0061,0.0207,0.0199,0.0219,0.0216,0.0375,0.0375,0.0375,0.0278,0.027,0.0263,0,0,0,0,0,0,-0.0259,-0.0226,-0.0212,-0.0222,-0.0184,-0.0116,-0.0108,-0.0077,-0.002,-0.0016,0.0068,0.009,0.0139,0.0195,0.0184,0.0262,0.0295,0.0299,0.0215,0.0208,0.0202,0.0183,0.024,0,0,0,0,0,-0.0277,-0.0285,-0.0237,-0.0246,-0.0231,-0.0173,-0.0152,-0.0121,-0.0064,-0.004,0.0026,0.0096,0.0157,0.0194,0.0257,0.0304,0.0359,0.0314,0.0308,0.0302,0.0301,0.0376,0.0376,0.0376,0.0376,0.0376,0,0,-0.0299,-0.0282,-0.0287,-0.0257,-0.0223,-0.0208,-0.0159,-0.0137,-0.012,-0.0029,0.0014,0.0077,0.0165,0.0214,0.0241,0.0259,0.033,0.0302,0.0297,0.0299,0.0376,0.0376,0.0376,0.0376,0.0376,0.0376,0,0,-0.0346,-0.0331,-0.0351,-0.0324,-0.0287,-0.0243,-0.0244,-0.0181,-0.0149,-0.0101,-0.0035,0.0023,0.0118,0.0179,0.0222,0.0222,0.0291,0.0238,0.0197,0.0268,0.0269,0.027,0.0328,0.0335,0.0238,0.0238,0.0238,0,-0.0377,-0.0392,-0.0348,-0.0355,-0.0343,-0.0267,-0.0277,-0.0227,-0.0152,-0.0126,-0.0103,0.0035,0.0102,0.017,0.0168,0.0207,0.0256,0.0213,0.0258,0.0261,0.0264,0.0324,0.0333,0.0233,0.0233,0.0234,0.0234,0,-0.0433,-0.0441,-0.0448,-0.0433,-0.0411,-0.0405,-0.0339,-0.0304,-0.0256,-0.0203,-0.0133,-0.0036,0.0045,0.0072,0.0122,0.0174,0.0203,0.0236,0.027,0.0257,0.0322,0.0333,0.0226,0.0227,0.0229,0.023,0,0,-0.051,-0.0494,-0.0496,-0.0502,-0.0454,-0.044,-0.0408,-0.0354,-0.0331,-0.025,-0.0212,-0.0109,-0.0055,-0.0003,0.007,0.0133,0.0189,0.0184,0.019,0.0228,0.034,0.0372,0.0388,0.0227,0.0229,0.023,0.0372,0,-0.0566,-0.0604,-0.0575,-0.0594,-0.0603,-0.053,-0.051,-0.0451,-0.0377,-0.0315,-0.0208,-0.0143,-0.0082,-0.0046,0.0025,0.0155,0.0216,0.0147,0.0359,0.0365,0.0385,0.0401,0.0357,0.0481,0.0384,0.0386,0.0387,0,-0.0629,-0.0644,-0.0686,-0.0676,-0.0674,-0.0668,-0.0615,-0.0583,-0.0472,-0.042,-0.0328,-0.0236,-0.0124,-0.0076,0.0129,0.0082,0.0196,0.0293,0.0302,0.0377,0.0419,0.0484,0.0507,0.0407,0.0405,0.0404,0.0403,0,-0.0701,-0.0717,-0.0754,-0.0752,-0.0729,-0.0728,-0.0701,-0.0617,-0.0586,-0.0472,-0.0433,-0.029,-0.0209,-0.0049,0.0152,0.0144,0.0378,0.0398,0.0532,0.0536,0.0565,0.0568,0.0533,0.0533,0.0533,0.0532,0.0532,0,-0.0769,-0.0794,-0.0791,-0.081,-0.0848,-0.0801,-0.0805,-0.0752,-0.0672,-0.0634,-0.0491,-0.042,-0.0198,-0.0032,0.0139,0.0376,0.0374,0.0532,0.058,0.0527,0.0525,0.0515,0.0511,0.0538,0.0536,0.0535,0.0534,0,-0.0836,-0.0835,-0.0876,-0.0878,-0.0883,-0.0904,-0.0883,-0.0874,-0.0787,-0.0726,-0.0695,-0.0505,-0.0283,-0.0054,0.022,0.0362,0.0581,0.066,0.0576,0.0611,0.069,0.0679,0.0826,0.0828,0.083,0.0832,0.0834,0,-0.0872,-0.0902,-0.0938,-0.0971,-0.0974,-0.0994,-0.1009,-0.0942,-0.0917,-0.0769,-0.0741,-0.0524,-0.0354,0.0057,0.0343,0.065,0.065,0.0775,0.0756,0.0691,0.0724,0.0709,0.0696,0.0752,0.0753,0.0753,0.0754,0,-0.0937,-0.0948,-0.0983,-0.1058,-0.109,-0.1122,-0.1121,-0.1121,-0.1024,-0.0945,-0.0793,-0.0643,-0.025,0.0089,0.0475,0.0643,0.0722,0.0796,0.0776,0.0677,0.0632,0.066,0.0648,0.0759,0.0758,0.0758,0.0758,0.0757,-0.0976,-0.1023,-0.1074,-0.1139,-0.1185,-0.1223,-0.1235,-0.1206,-0.1154,-0.1004,-0.0847,-0.0586,-0.0259,0.0295,0.0572,0.0817,0.0814,0.0873,0.0868,0.0862,0.0821,0.0781,0.0928,0.0928,0.0929,0.0929,0.0929,0,-0.1023,-0.1076,-0.115,-0.1222,-0.1281,-0.1282,-0.1291,-0.126,-0.1191,-0.1018,-0.0832,-0.0456,-0.0062,0.0275,0.0676,0.0916,0.0883,0.0939,0.0856,0.085,0.0845,0.0799,0.0903,0.0903,0.0904,0.0904,0,0,-0.1049,-0.1131,-0.1172,-0.1279,-0.1329,-0.1364,-0.1361,-0.1289,-0.1157,-0.0976,-0.0772,-0.0474,-0.0055,0.0229,0.053,0.0734,0.0722,0.0738,0.0733,0.0594,0.0586,0.0782,0.0701,0,0,0,0,0]}],[{"header":{"parameterUnit":"m.s-1","parameterCategory":2,"la1":30.2991,"la2":30.254,"lo1":-89.0895,"lo2":-89.0444,"dy":0.0017,"dx":0.0017,"nx":28,"ny":28,"refTime":"2024-05-10T21:00:00:Z","depth":"4","parameterNumber":2,"parameterNumberName":"U-component_of_CURRENTS"},"data":[0,0,0,0,0,0,0,0,0,0,0,0,0,0,0,0,0,0,0,0,0,0,0,0,0,0,0,0,0,0,0,0,0,0,0,0,0,0,0,0,0,0,0,0,0,0,0,0,0,0,0,0,0,0,0,0,0,0,-0.176,-0.176,0,-0.1793,-0.1793,-0.1793,-0.1823,-0.1824,-0.1824,-0.1825,-0.1878,-0.1879,-0.188,0,0,0,0,0,0,0,0,0,0,0,0,0,-0.1692,-0.1693,-0.176,-0.176,-0.1761,-0.1793,-0.1793,-0.1793,-0.1823,-0.1824,-0.1825,-0.1825,-0.1878,-0.1879,-0.188,0,0,0,0,0,0,0,0,0,0,0,0,0,-0.1721,-0.1693,-0.176,-0.1781,-0.1783,-0.1793,-0.1793,-0.1793,-0.1823,-0.1824,-0.1825,-0.1825,-0.1877,-0.1879,-0.188,-0.1873,0,0,-0.1885,-0.1885,0,0,0,0,0,0,0,0,-0.1719,-0.1723,-0.1777,-0.1779,-0.1782,-0.1806,-0.1789,-0.1822,-0.1823,-0.1806,-0.1825,-0.1826,-0.1856,-0.186,-0.1861,-0.1876,-0.1878,-0.1885,-0.1885,-0.1886,-0.1886,0,0,0,0,0,0,0,-0.1717,-0.1722,-0.1771,-0.1778,-0.1781,-0.1778,-0.1783,-0.1795,-0.1826,-0.1808,-0.181,-0.1816,-0.1858,-0.186,-0.1863,-0.1879,-0.1885,-0.1886,-0.1887,-0.1887,-0.2001,-0.2003,0,0,0,0,0,0,-0.1718,-0.172,-0.177,-0.1772,-0.1754,-0.1779,-0.1785,-0.1796,-0.1825,-0.1831,-0.1816,-0.1818,-0.1857,-0.1861,-0.1865,-0.1966,-0.1886,-0.1887,-0.1888,-0.1999,-0.2001,-0.2004,0,0,0,0,0,0,-0.1716,-0.1722,-0.1769,-0.1748,-0.1754,-0.178,-0.1792,-0.1797,-0.1831,-0.1831,-0.1837,-0.1849,-0.1858,-0.1863,-0.1911,-0.1965,-0.1888,-0.1889,-0.1996,-0.2,-0.2003,-0.21,0,0,0,0,0,0,-0.1714,-0.1721,-0.1744,-0.1748,-0.1755,-0.1805,-0.1792,-0.1797,-0.1832,-0.1836,-0.1861,-0.1865,-0.1859,-0.191,-0.1913,-0.1965,-0.189,-0.1993,-0.1998,-0.2001,-0.2094,-0.2106,-0.2117,0,0,0,0,0,-0.1712,-0.1734,-0.1745,-0.1752,-0.1781,-0.1806,-0.1811,-0.1829,-0.1833,-0.186,-0.1879,-0.1866,-0.1938,-0.1912,-0.1916,-0.197,-0.1991,-0.1996,-0.2001,-0.2089,-0.2104,-0.2117,0,0,0,0,0,0,-0.1717,-0.1739,-0.1751,-0.1781,-0.1808,-0.1813,-0.1838,-0.1848,-0.1881,-0.1893,-0.1889,-0.1895,-0.196,-0.1949,-0.192,-0.2015,-0.1964,-0.197,-0.203,-0.2044,-0.2055,-0.2057,-0.1892,0,0,0,0,0,-0.1728,-0.1754,-0.1774,-0.1803,-0.1817,-0.1834,-0.1851,-0.1867,-0.1888,-0.1905,-0.1925,-0.1947,-0.1976,-0.1998,-0.2018,-0.2065,-0.2034,-0.2103,-0.2114,-0.2124,-0.2129,-0.2128,-0.2139,-0.202,-0.202,-0.202,0,0,-0.1741,-0.1755,-0.1773,-0.1807,-0.1825,-0.1863,-0.1847,-0.1886,-0.1928,-0.1905,-0.1976,-0.199,-0.1998,-0.2057,-0.2085,-0.2059,-0.2142,-0.213,-0.2138,-0.2138,-0.2134,-0.2146,-0.2156,-0.2023,-0.2022,-0.2022,0,0,-0.177,-0.1792,-0.1824,-0.185,-0.1889,-0.1901,-0.1922,-0.1954,-0.1983,-0.204,-0.2042,-0.209,-0.2128,-0.2152,-0.2164,-0.2248,-0.2202,-0.226,-0.232,-0.2321,-0.233,-0.2338,-0.2309,-0.2313,-0.2265,-0.2266,-0.2266,0,-0.1786,-0.1825,-0.1839,-0.1876,-0.1905,-0.1925,-0.197,-0.2002,-0.2052,-0.2081,-0.208,-0.2158,-0.2173,-0.224,-0.2278,-0.2276,-0.2251,-0.2268,-0.2334,-0.2342,-0.2348,-0.2316,-0.2319,-0.2271,-0.227,-0.227,-0.2269,0,-0.1832,-0.1876,-0.1896,-0.1951,-0.1988,-0.2027,-0.2071,-0.2122,-0.2154,-0.218,-0.226,-0.2281,-0.2322,-0.2347,-0.2341,-0.2408,-0.2368,-0.2348,-0.2296,-0.2366,-0.2327,-0.2329,-0.2278,-0.2277,-0.2275,-0.2274,0,0,-0.1816,-0.1912,-0.192,-0.1956,-0.2029,-0.2053,-0.214,-0.2205,-0.225,-0.2313,-0.2367,-0.2441,-0.2447,-0.2462,-0.2468,-0.2482,-0.2514,-0.2443,-0.2441,-0.2407,-0.2492,-0.2327,-0.2312,-0.2502,-0.2503,-0.2504,-0.2444,0,-0.1843,-0.1922,-0.1971,-0.2049,-0.2084,-0.2144,-0.2213,-0.2281,-0.2332,-0.239,-0.2433,-0.2483,-0.2491,-0.2512,-0.2538,-0.2516,-0.2525,-0.253,-0.2435,-0.2432,-0.2272,-0.2311,-0.2508,-0.2445,-0.2445,-0.2446,-0.2446,0,-0.1851,-0.1903,-0.1989,-0.2081,-0.2105,-0.2165,-0.226,-0.2326,-0.2417,-0.2455,-0.2522,-0.2542,-0.26,-0.2578,-0.2589,-0.259,-0.2557,-0.2533,-0.2529,-0.2341,-0.227,-0.2363,-0.2448,-0.2448,-0.2448,-0.2448,-0.2448,0,-0.1786,-0.19,-0.1968,-0.2002,-0.2121,-0.2178,-0.2244,-0.2346,-0.2394,-0.2491,-0.252,-0.2591,-0.2606,-0.2605,-0.2577,-0.2583,-0.2549,-0.254,-0.2362,-0.2348,-0.2471,-0.2463,-0.254,-0.254,-0.254,-0.254,-0.254,0,-0.1752,-0.1805,-0.1947,-0.1975,-0.2051,-0.2148,-0.2228,-0.2306,-0.2404,-0.2441,-0.2541,-0.2557,-0.2613,-0.2603,-0.258,-0.2462,-0.2549,-0.2369,-0.2325,-0.2513,-0.2511,-0.2471,-0.2464,-0.2538,-0.2538,-0.2539,-0.2539,0,-0.1654,-0.1756,-0.183,-0.1973,-0.2018,-0.2067,-0.2201,-0.2247,-0.2357,-0.2404,-0.2432,-0.2526,-0.2504,-0.2525,-0.2499,-0.2427,-0.2355,-0.2293,-0.2477,-0.2445,-0.2154,-0.2154,-0.2082,-0.2076,-0.207,-0.2066,-0.2062,0,-0.1606,-0.1641,-0.1799,-0.1844,-0.1913,-0.2005,-0.2062,-0.2199,-0.2239,-0.2355,-0.2353,-0.2388,-0.2422,-0.2245,-0.2301,-0.2224,-0.2204,-0.2154,-0.218,-0.2144,-0.211,-0.2117,-0.2123,-0.2054,-0.2052,-0.2051,-0.205,0,-0.1504,-0.1583,-0.1648,-0.174,-0.1814,-0.1877,-0.1967,-0.1976,-0.211,-0.2233,-0.2196,-0.2176,-0.2141,-0.2121,-0.2068,-0.2027,-0.2184,-0.2099,-0.211,-0.2134,-0.2109,-0.2082,-0.2094,-0.2031,-0.2034,-0.2036,-0.2037,0,-0.1427,-0.1453,-0.1552,-0.1612,-0.1699,-0.1712,-0.1782,-0.1815,-0.1865,-0.2003,-0.1981,-0.2024,-0.2107,-0.2015,-0.1975,-0.1911,-0.1889,-0.1836,-0.186,-0.1881,-0.1846,-0.1788,-0.1567,0,0,0,0,0,-0.1332,-0.1359,-0.1413,-0.1476,-0.1552,-0.1591,-0.1701,-0.1774,-0.1903,-0.1818,-0.1892,-0.1851,-0.1791,-0.183,-0.1718,-0.1887,-0.1899,-0.1751,-0.1853,-0.1929,-0.195,-0.1929,0,0,0,0,0,0,-0.1268,-0.1336,-0.1364,-0.1333,-0.1345,-0.1403,-0.1458,-0.155,-0.1519,-0.1656,-0.163,-0.1735,-0.1704,-0.181,-0.1676,-0.1684,-0.1709,-0.1795,-0.179,-0.1917,-0.1936,-0.1953,-0.1939,0,0,0,0,0]},{"header":{"parameterUnit":"m.s-1","parameterCategory":2,"la1":30.2991,"la2":30.254,"lo1":-89.0895,"lo2":-89.0444,"dy":0.0017,"dx":0.0017,"nx":28,"ny":28,"refTime":"2024-05-10T21:00:00:Z","depth":"4","parameterNumber":3,"parameterNumberName":"V-component_of_CURRENTS"},"data":[0,0,0,0,0,0,0,0,0,0,0,0,0,0,0,0,0,0,0,0,0,0,0,0,0,0,0,0,0,0,0,0,0,0,0,0,0,0,0,0,0,0,0,0,0,0,0,0,0,0,0,0,0,0,0,0,0,0,-0.0117,-0.0116,0,-0.004,-0.0039,-0.0038,0.0009,0.0009,0.0009,0.0009,0.0126,0.0129,0.0132,0,0,0,0,0,0,0,0,0,0,0,0,0,-0.0143,-0.0143,-0.0117,-0.0116,-0.0115,-0.0041,-0.0039,-0.0038,0.0009,0.0009,0.0009,0.0009,0.0125,0.0128,0.0132,0,0,0,0,0,0,0,0,0,0,0,0,0,-0.0105,-0.0143,-0.0117,-0.0084,-0.008,-0.0041,-0.0039,-0.0038,0.0009,0.0009,0.0009,0.0009,0.0124,0.0128,0.0133,0.0156,0,0,0.0146,0.0148,0,0,0,0,0,0,0,0,-0.0107,-0.0104,-0.009,-0.0086,-0.0082,-0.0026,-0.0006,0.0029,0.0008,-0.0024,0.0009,0.0009,0.0078,0.0086,0.0101,0.0162,0.0167,0.0147,0.0149,0.0151,0.0153,0,0,0,0,0,0,0,-0.011,-0.0106,-0.0086,-0.0089,-0.0084,-0.0045,-0.004,0.0001,0.0027,-0.0021,-0.0018,-0.0011,0.008,0.0097,0.0104,0.0168,0.0147,0.015,0.0153,0.0155,0.0282,0.0283,0,0,0,0,0,0,-0.0126,-0.0109,-0.0088,-0.0083,-0.0096,-0.0046,-0.004,-0.0043,0.0025,0.0035,-0.0011,-0.0009,0.0089,0.0099,0.0109,0.0145,0.0151,0.0155,0.0158,0.0282,0.0282,0.0283,0,0,0,0,0,0,-0.0127,-0.0126,-0.0091,-0.0095,-0.0088,-0.0046,-0.005,-0.0042,-0.0028,0.0032,0.0043,-0.0006,0.0089,0.0102,0.0149,0.015,0.0157,0.0162,0.0281,0.0282,0.0283,0.0215,0,0,0,0,0,0,-0.0129,-0.0127,-0.0136,-0.0096,-0.0088,-0.0075,-0.005,-0.0041,-0.0024,-0.0021,0.0041,0.0052,0.0091,0.0142,0.0154,0.0156,0.0165,0.028,0.0281,0.0282,0.0216,0.0214,0.0211,0,0,0,0,0,-0.013,-0.0145,-0.0137,-0.0134,-0.0103,-0.0075,-0.0068,-0.0035,-0.0025,-0.0021,0.0026,0.005,0.0159,0.0146,0.016,0.0163,0.0279,0.0281,0.0282,0.0218,0.0214,0.0211,0,0,0,0,0,0,-0.0161,-0.014,-0.0131,-0.0139,-0.0113,-0.0068,-0.0064,-0.0041,-0.0002,0.0001,0.0058,0.0073,0.0114,0.0152,0.0137,0.0206,0.0223,0.0228,0.017,0.0167,0.0165,0.0142,0.0169,0,0,0,0,0,-0.0174,-0.0181,-0.0149,-0.0156,-0.0146,-0.0107,-0.0092,-0.0072,-0.0032,-0.0015,0.0031,0.0083,0.0132,0.0158,0.0204,0.0241,0.0275,0.0254,0.0252,0.0249,0.0241,0.0298,0.0299,0.0288,0.0288,0.0288,0,0,-0.019,-0.0179,-0.0184,-0.0164,-0.0141,-0.0132,-0.0098,-0.0083,-0.007,-0.0008,0.0025,0.0074,0.014,0.0181,0.0203,0.0212,0.027,0.0251,0.0248,0.0242,0.03,0.0301,0.0301,0.0289,0.0289,0.0289,0,0,-0.0224,-0.0214,-0.023,-0.0212,-0.0187,-0.0156,-0.0156,-0.0113,-0.0089,-0.0052,-0.0001,0.0047,0.0118,0.0166,0.02,0.0213,0.0253,0.0229,0.0198,0.0253,0.0254,0.0255,0.0291,0.0296,0.0229,0.0229,0.0229,0,-0.0246,-0.0259,-0.0229,-0.0234,-0.0227,-0.0172,-0.0182,-0.0144,-0.0089,-0.0071,-0.0051,0.0058,0.0111,0.0167,0.0173,0.0205,0.0236,0.0199,0.0247,0.0249,0.0251,0.0288,0.0294,0.0226,0.0226,0.0227,0.0227,0,-0.0286,-0.0295,-0.0301,-0.0291,-0.0276,-0.0275,-0.0224,-0.0198,-0.0161,-0.0122,-0.0065,0.0014,0.0075,0.0105,0.0144,0.0189,0.0205,0.0233,0.0246,0.0248,0.0287,0.0295,0.0222,0.0223,0.0224,0.0224,0,0,-0.0342,-0.0334,-0.0337,-0.0345,-0.031,-0.0303,-0.0276,-0.0238,-0.0223,-0.0155,-0.013,-0.0037,0.0003,0.0045,0.0105,0.0157,0.0201,0.0194,0.0199,0.0213,0.0308,0.0289,0.0296,0.0235,0.0236,0.0237,0.0325,0,-0.0385,-0.0417,-0.0396,-0.0416,-0.0424,-0.0373,-0.0358,-0.0314,-0.0258,-0.0213,-0.0124,-0.0074,-0.0017,0.001,0.0071,0.0174,0.022,0.0174,0.0319,0.0322,0.0292,0.0304,0.0241,0.0331,0.0333,0.0334,0.0335,0,-0.043,-0.0446,-0.0484,-0.0484,-0.0485,-0.0485,-0.0453,-0.0428,-0.0345,-0.0306,-0.0234,-0.016,-0.0068,-0.0024,0.0138,0.0105,0.0193,0.0271,0.0277,0.0286,0.0318,0.0335,0.0349,0.0348,0.0347,0.0346,0.0345,0,-0.0484,-0.0503,-0.0539,-0.054,-0.053,-0.0537,-0.0523,-0.0462,-0.0441,-0.0358,-0.0331,-0.0216,-0.0153,-0.0024,0.0139,0.0139,0.0313,0.0338,0.0401,0.04,0.0419,0.0417,0.0439,0.0439,0.0439,0.0439,0.0439,0,-0.0529,-0.0557,-0.0571,-0.0589,-0.0632,-0.0601,-0.0617,-0.0579,-0.0524,-0.0499,-0.0385,-0.0332,-0.0149,-0.0022,0.0119,0.028,0.03,0.0392,0.0424,0.0389,0.0383,0.0424,0.0421,0.0442,0.0441,0.0441,0.044,0,-0.0571,-0.0582,-0.0626,-0.0646,-0.0659,-0.0685,-0.0687,-0.0686,-0.0627,-0.0586,-0.0563,-0.0413,-0.0246,-0.0064,0.0152,0.0248,0.0409,0.0459,0.0394,0.0422,0.0462,0.0455,0.0532,0.0532,0.0532,0.0532,0.0532,0,-0.0591,-0.062,-0.0678,-0.0716,-0.0729,-0.0763,-0.0784,-0.0744,-0.0726,-0.0625,-0.0602,-0.0446,-0.033,-0.0039,0.0145,0.0392,0.0428,0.0491,0.0487,0.0449,0.0473,0.0465,0.0458,0.0532,0.0532,0.0532,0.0532,0,-0.0627,-0.0655,-0.0694,-0.0777,-0.082,-0.0858,-0.0872,-0.0868,-0.0802,-0.0758,-0.0618,-0.0454,-0.027,-0.0042,0.0142,0.0324,0.044,0.0493,0.0494,0.049,0.045,0.0472,0.0465,0.0533,0.0533,0.0533,0.0533,0,-0.065,-0.0695,-0.0757,-0.0823,-0.0888,-0.092,-0.0926,-0.0884,-0.0853,-0.0725,-0.0682,-0.0463,-0.0333,-0.0077,0.0103,0.0268,0.031,0.0351,0.0361,0.0362,0.0287,0.0209,0.0242,0,0,0,0,0,-0.0662,-0.0722,-0.0796,-0.0865,-0.0929,-0.0958,-0.0967,-0.0951,-0.0891,-0.0799,-0.0732,-0.055,-0.0265,-0.0132,0.0031,0.0088,0.0319,0.028,0.0365,0.0534,0.0534,0.0472,0,0,0,0,0,0,-0.067,-0.0755,-0.0798,-0.088,-0.0932,-0.0987,-0.0993,-0.0955,-0.0883,-0.0801,-0.0641,-0.0536,-0.0255,-0.0361,0.0025,0.0077,0.0147,0.0423,0.0426,0.0534,0.0534,0.0534,0.047,0,0,0,0,0]}]]